Location: Haieshausen
(51.8387°N, 9.9720°E)
Time: 03:20:20
(UTC+00:00)

ATLAS 5 CENTAUR R/B - Pass Details

Date: 14 July 2020
Orbit: 534 x 1124 km, 63.4° (Epoch: 06 August)

Event Time Altitude Azimuth Distance (km) Brightness Sun altitude
Rises 01:33:38 0° 314° (NW) 3,198 5.4 -11.4°
Reaches altitude 10° 01:35:52 10° 314° (NW) 2,355 4.7 -11.2°
Maximum altitude 01:41:22 89° 227° (SW) 893 2.3 -10.8°
Drops below altitude 10° 01:47:51 10° 137° (SE) 2,752 4.7 -10.3°
Sets 01:50:38 0° 138° (SE) 3,775 5.4 -10.0°
